| time (UTC) | temp F | wind direction | speed MPH | gust MPH | rain 1hr in | rain 24hr in | rain mn in | humidity % | barometer mb |
| 20260507113503 | 45 | 241 | 1.0 | 2.0 | 0.00 | 0.00 | 0.00 | 81 | 1012.1 |
| 20260507113008 | 45 | 239 | 1.0 | 2.0 | 0.00 | 0.00 | 0.00 | 81 | 1012.0 |
| 20260507112504 | 45 | 234 | 1.0 | 2.0 | 0.00 | 0.00 | 0.00 | 81 | 1012.0 |
| 20260507112004 | 45 | 234 | 1.0 | 2.0 | 0.00 | 0.00 | 0.00 | 80 | 1012.0 |
| 20260507111003 | 45 | 232 | 0.0 | 1.0 | 0.00 | 0.00 | 0.00 | 80 | 1012.0 |
| 20260507110503 | 46 | 237 | 0.0 | 2.0 | 0.00 | 0.00 | 0.00 | 80 | 1012.0 |
| 20260507110008 | 46 | 240 | 0.0 | 2.0 | 0.00 | 0.00 | 0.00 | 80 | 1012.1 |
| 20260507105003 | 46 | 235 | 1.0 | 2.0 | 0.00 | 0.00 | 0.00 | 80 | 1012.0 |
| 20260507104508 | 46 | 235 | 1.0 | 2.0 | 0.00 | 0.00 | 0.00 | 79 | 1011.9 |
| 20260507104003 | 46 | 237 | 1.0 | 2.0 | 0.00 | 0.00 | 0.00 | 79 | 1011.9 |
| 20260507103503 | 46 | 238 | 1.0 | 2.0 | 0.00 | 0.00 | 0.00 | 79 | 1012.0 |
| 20260507103009 | 46 | 242 | 1.0 | 2.0 | 0.00 | 0.00 | 0.00 | 79 | 1011.9 |
| 20260507102003 | 46 | 250 | 0.0 | 2.0 | 0.00 | 0.00 | 0.00 | 79 | 1012.0 |
| 20260507101509 | 46 | 240 | 0.0 | 2.0 | 0.00 | 0.00 | 0.00 | 79 | 1012.0 |
| 20260507101004 | 46 | 246 | 1.0 | 2.0 | 0.00 | 0.00 | 0.00 | 78 | 1012.0 |
| 20260507100504 | 46 | 247 | 1.0 | 2.0 | 0.00 | 0.00 | 0.00 | 78 | 1012.0 |
| 20260507095003 | 46 | 229 | 1.0 | 2.0 | 0.00 | 0.00 | 0.00 | 78 | 1012.2 |
| 20260507094508 | 46 | 231 | 1.0 | 2.0 | 0.00 | 0.00 | 0.00 | 78 | 1012.2 |
| 20260507094005 | 46 | 236 | 0.0 | 2.0 | 0.00 | 0.00 | 0.00 | 78 | 1012.3 |
| 20260507092503 | 46 | 238 | 0.0 | 1.0 | 0.00 | 0.00 | 0.00 | 77 | 1012.3 |
| 20260507092004 | 46 | 239 | 0.0 | 1.0 | 0.00 | 0.00 | 0.00 | 77 | 1012.4 |
| 20260507091508 | 46 | 247 | 0.0 | 1.0 | 0.00 | 0.00 | 0.00 | 77 | 1012.4 |
| 20260507090503 | 46 | 238 | 0.0 | 1.0 | 0.00 | 0.00 | 0.00 | 76 | 1012.5 |
| 20260507090008 | 46 | 249 | 0.0 | 1.0 | 0.00 | 0.00 | 0.00 | 76 | 1012.6 |
| 20260507084508 | 46 | 0 | 0.0 | 0.0 | 0.00 | 0.00 | 0.00 | 75 | 1012.9 |
| 20260507084003 | 46 | 0 | 0.0 | 0.0 | 0.00 | 0.00 | 0.00 | 75 | 1012.9 |
| 20260507082503 | 46 | 257 | 0.0 | 1.0 | 0.00 | 0.00 | 0.00 | 73 | 1013.1 |
| 20260507082003 | 46 | 0 | 0.0 | 0.0 | 0.00 | 0.00 | 0.00 | 73 | 1013.2 |
| 20260507081508 | 46 | 0 | 0.0 | 0.0 | 0.00 | 0.00 | 0.00 | 73 | 1013.2 |
| 20260507081005 | 46 | 0 | 0.0 | 0.0 | 0.00 | 0.00 | 0.00 | 72 | 1013.3 |
| 20260507080503 | 46 | 257 | 0.0 | 1.0 | 0.00 | 0.00 | 0.00 | 72 | 1013.3 |
| 20260507075003 | 45 | 0 | 0.0 | 0.0 | 0.00 | 0.00 | 0.00 | 71 | 1013.5 |
| 20260507074003 | 45 | 0 | 0.0 | 0.0 | 0.00 | 0.00 | 0.00 | 72 | 1013.6 |
| 20260507073504 | 44 | 0 | 0.0 | 0.0 | 0.00 | 0.00 | 0.00 | 71 | 1013.6 |
| 20260507073008 | 44 | 0 | 0.0 | 0.0 | 0.00 | 0.00 | 0.00 | 72 | 1013.6 |
| 20260507072504 | 44 | 0 | 0.0 | 0.0 | 0.00 | 0.00 | 0.00 | 73 | 1013.7 |
| 20260507072003 | 43 | 0 | 0.0 | 0.0 | 0.00 | 0.00 | 0.00 | 72 | 1013.8 |
| 20260507071508 | 44 | 0 | 0.0 | 0.0 | 0.00 | 0.00 | 0.00 | 72 | 1013.9 |
| 20260507071003 | 44 | 0 | 0.0 | 0.0 | 0.00 | 0.00 | 0.00 | 72 | 1013.9 |
| 20260507070504 | 43 | 0 | 0.0 | 0.0 | 0.00 | 0.00 | 0.00 | 72 | 1013.9 |
| 20260507070011 | 43 | 0 | 0.0 | 0.0 | 0.00 | 0.00 | 0.00 | 73 | 1014.0 |
| 20260507065504 | 42 | 0 | 0.0 | 0.0 | 0.00 | 0.00 | 0.00 | 73 | 1014.1 |
| 20260507065004 | 42 | 0 | 0.0 | 0.0 | 0.00 | 0.00 | 0.00 | 74 | 1014.2 |
| 20260507064508 | 42 | 0 | 0.0 | 0.0 | 0.00 | 0.00 | 0.00 | 74 | 1014.3 |
| 20260507064003 | 42 | 0 | 0.0 | 0.0 | 0.00 | 0.00 | 0.00 | 75 | 1014.4 |
| 20260507063504 | 42 | 0 | 0.0 | 0.0 | 0.00 | 0.00 | 0.00 | 76 | 1014.4 |
| 20260507062504 | 42 | 0 | 0.0 | 0.0 | 0.00 | 0.00 | 0.00 | 76 | 1014.4 |
| 20260507062003 | 42 | 0 | 0.0 | 0.0 | 0.00 | 0.00 | 0.00 | 74 | 1014.4 |
| 20260507061508 | 42 | 0 | 0.0 | 0.0 | 0.00 | 0.00 | 0.00 | 74 | 1014.5 |
| 20260507061003 | 42 | 0 | 0.0 | 0.0 | 0.00 | 0.00 | 0.00 | 74 | 1014.4 |
| 20260507060504 | 42 | 0 | 0.0 | 0.0 | 0.00 | 0.00 | 0.00 | 74 | 1014.6 |
| 20260507060009 | 42 | 0 | 0.0 | 0.0 | 0.00 | 0.00 | 0.00 | 74 | 1014.6 |
| 20260507055503 | 42 | 0 | 0.0 | 0.0 | 0.00 | 0.00 | 0.00 | 74 | 1014.6 |
| 20260507055003 | 43 | 0 | 0.0 | 0.0 | 0.00 | 0.00 | 0.00 | 73 | 1014.6 |
| 20260507054508 | 43 | 0 | 0.0 | 0.0 | 0.00 | 0.00 | 0.00 | 74 | 1014.6 |
| 20260507054003 | 43 | 0 | 0.0 | 0.0 | 0.00 | 0.00 | 0.00 | 75 | 1014.7 |
| 20260507053503 | 43 | 0 | 0.0 | 0.0 | 0.00 | 0.00 | 0.00 | 75 | 1014.7 |
| 20260507053009 | 43 | 0 | 0.0 | 0.0 | 0.00 | 0.00 | 0.00 | 74 | 1014.7 |
| 20260507052504 | 43 | 0 | 0.0 | 0.0 | 0.00 | 0.00 | 0.00 | 74 | 1014.7 |
| 20260507052003 | 43 | 0 | 0.0 | 0.0 | 0.00 | 0.00 | 0.00 | 73 | 1014.6 |
| 20260507050504 | 43 | 0 | 0.0 | 0.0 | 0.00 | 0.00 | 0.00 | 74 | 1014.8 |
| 20260507050009 | 42 | 0 | 0.0 | 0.0 | 0.00 | 0.00 | 0.00 | 73 | 1014.8 |
| 20260507045503 | 42 | 0 | 0.0 | 0.0 | 0.00 | 0.00 | 0.00 | 73 | 1014.8 |
| 20260507044508 | 42 | 0 | 0.0 | 0.0 | 0.00 | 0.00 | 0.00 | 70 | 1014.7 |
| 20260507044003 | 42 | 0 | 0.0 | 0.0 | 0.00 | 0.00 | 0.00 | 70 | 1014.7 |
| 20260507043504 | 42 | 0 | 0.0 | 0.0 | 0.00 | 0.00 | 0.00 | 71 | 1014.8 |
| 20260507043009 | 42 | 0 | 0.0 | 0.0 | 0.00 | 0.00 | 0.00 | 70 | 1014.9 |
| 20260507042503 | 43 | 0 | 0.0 | 0.0 | 0.00 | 0.00 | 0.00 | 69 | 1015.0 |
| 20260507042003 | 43 | 0 | 0.0 | 0.0 | 0.00 | 0.00 | 0.00 | 68 | 1015.0 |
| 20260507041508 | 43 | 0 | 0.0 | 0.0 | 0.00 | 0.00 | 0.00 | 69 | 1015.0 |
| 20260507041004 | 44 | 0 | 0.0 | 0.0 | 0.00 | 0.00 | 0.00 | 69 | 1015.1 |
| 20260507040503 | 44 | 0 | 0.0 | 0.0 | 0.00 | 0.00 | 0.00 | 68 | 1015.1 |
| 20260507040008 | 44 | 0 | 0.0 | 0.0 | 0.00 | 0.00 | 0.00 | 67 | 1015.2 |
| 20260507035503 | 44 | 0 | 0.0 | 0.0 | 0.00 | 0.00 | 0.00 | 67 | 1015.2 |
| 20260507035005 | 44 | 0 | 0.0 | 0.0 | 0.00 | 0.00 | 0.00 | 66 | 1015.2 |
| 20260507034003 | 44 | 0 | 0.0 | 0.0 | 0.00 | 0.00 | 0.00 | 65 | 1015.3 |
| 20260507033504 | 44 | 0 | 0.0 | 0.0 | 0.00 | 0.00 | 0.00 | 65 | 1015.3 |
| 20260507033009 | 44 | 0 | 0.0 | 0.0 | 0.00 | 0.00 | 0.00 | 65 | 1015.3 |
| 20260507032003 | 45 | 0 | 0.0 | 0.0 | 0.00 | 0.00 | 0.00 | 62 | 1015.4 |
| 20260507031508 | 45 | 0 | 0.0 | 0.0 | 0.00 | 0.00 | 0.00 | 60 | 1015.3 |
| 20260507031003 | 46 | 0 | 0.0 | 0.0 | 0.00 | 0.00 | 0.00 | 60 | 1015.3 |
| 20260507030008 | 46 | 0 | 0.0 | 0.0 | 0.00 | 0.00 | 0.00 | 59 | 1015.3 |
| 20260507025503 | 47 | 0 | 0.0 | 0.0 | 0.00 | 0.00 | 0.00 | 57 | 1015.3 |
| 20260507025004 | 47 | 0 | 0.0 | 0.0 | 0.00 | 0.00 | 0.00 | 58 | 1015.3 |
| 20260507024508 | 48 | 0 | 0.0 | 0.0 | 0.00 | 0.00 | 0.00 | 58 | 1015.3 |
| 20260507024003 | 48 | 0 | 0.0 | 0.0 | 0.00 | 0.00 | 0.00 | 57 | 1015.3 |
| 20260507023503 | 48 | 0 | 0.0 | 0.0 | 0.00 | 0.00 | 0.00 | 55 | 1015.2 |
| 20260507023008 | 48 | 0 | 0.0 | 0.0 | 0.00 | 0.00 | 0.00 | 55 | 1015.1 |
| 20260507022504 | 49 | 0 | 0.0 | 0.0 | 0.00 | 0.00 | 0.00 | 54 | 1015.1 |
| 20260507022003 | 49 | 0 | 0.0 | 0.0 | 0.00 | 0.00 | 0.00 | 53 | 1015.1 |
| 20260507021003 | 50 | 0 | 0.0 | 0.0 | 0.00 | 0.00 | 0.00 | 51 | 1015.0 |
| 20260507020503 | 50 | 0 | 0.0 | 0.0 | 0.00 | 0.00 | 0.00 | 50 | 1015.0 |
| 20260507020009 | 51 | 0 | 0.0 | 0.0 | 0.00 | 0.00 | 0.00 | 49 | 1015.0 |
| 20260507015503 | 51 | 0 | 0.0 | 0.0 | 0.00 | 0.00 | 0.00 | 48 | 1015.0 |
| 20260507015004 | 52 | 0 | 0.0 | 0.0 | 0.00 | 0.00 | 0.00 | 47 | 1015.0 |
| 20260507014508 | 52 | 0 | 0.0 | 0.0 | 0.00 | 0.00 | 0.00 | 45 | 1014.9 |
| 20260507012503 | 55 | 0 | 0.0 | 0.0 | 0.00 | 0.00 | 0.00 | 40 | 1014.9 |
| 20260507012004 | 56 | 0 | 0.0 | 0.0 | 0.00 | 0.00 | 0.00 | 40 | 1015.0 |
| 20260507011003 | 57 | 260 | 0.0 | 1.0 | 0.00 | 0.00 | 0.00 | 36 | 1015.0 |
| 20260507010503 | 58 | 260 | 0.0 | 1.0 | 0.00 | 0.00 | 0.00 | 36 | 1014.9 |
| 20260507005003 | 60 | 260 | 0.0 | 2.0 | 0.00 | 0.00 | 0.00 | 35 | 1015.0 |
| 20260507004003 | 60 | 283 | 0.0 | 3.0 | 0.00 | 0.00 | 0.00 | 32 | 1015.0 |
| 20260507003503 | 60 | 303 | 0.0 | 3.0 | 0.00 | 0.00 | 0.00 | 33 | 1015.0 |
| 20260507003009 | 61 | 330 | 0.0 | 3.0 | 0.00 | 0.00 | 0.00 | 31 | 1015.1 |
| 20260507002503 | 60 | 320 | 1.0 | 3.0 | 0.00 | 0.00 | 0.00 | 31 | 1015.2 |
| 20260507002003 | 60 | 310 | 1.0 | 4.0 | 0.00 | 0.00 | 0.00 | 32 | 1015.2 |
| 20260507001509 | 60 | 298 | 1.0 | 4.0 | 0.00 | 0.00 | 0.00 | 32 | 1015.2 |
| 20260507001004 | 60 | 295 | 1.0 | 3.0 | 0.00 | 0.00 | 0.00 | 31 | 1015.2 |
| 20260507000505 | 60 | 336 | 1.0 | 4.0 | 0.00 | 0.00 | 0.00 | 31 | 1015.2 |
| 20260507000009 | 60 | 339 | 1.0 | 4.0 | 0.00 | 0.00 | 0.00 | 30 | 1015.3 |
| 20260506235003 | 61 | 333 | 2.0 | 5.0 | 0.00 | 0.00 | 0.00 | 30 | 1015.4 |
| 20260506234003 | 61 | 339 | 2.0 | 7.0 | 0.00 | 0.00 | 0.00 | 30 | 1015.5 |
| 20260506233503 | 61 | 341 | 2.0 | 6.0 | 0.00 | 0.00 | 0.00 | 32 | 1015.6 |
| 20260506232504 | 61 | 311 | 2.0 | 7.0 | 0.00 | 0.00 | 0.00 | 31 | 1015.5 |
| 20260506231508 | 61 | 270 | 1.0 | 3.0 | 0.00 | 0.00 | 0.00 | 34 | 1015.5 |
| 20260506231003 | 61 | 339 | 1.0 | 4.0 | 0.00 | 0.00 | 0.00 | 33 | 1015.6 |
| 20260506230504 | 61 | 315 | 2.0 | 8.0 | 0.00 | 0.00 | 0.00 | 31 | 1015.7 |
| 20260506230008 | 61 | 306 | 2.0 | 8.0 | 0.00 | 0.00 | 0.00 | 30 | 1015.7 |
| 20260506225504 | 61 | 310 | 1.0 | 7.0 | 0.00 | 0.00 | 0.00 | 31 | 1015.7 |
| 20260506225003 | 61 | 18 | 0.0 | 5.0 | 0.00 | 0.00 | 0.00 | 33 | 1015.7 |
| 20260506224508 | 60 | 332 | 2.0 | 7.0 | 0.00 | 0.00 | 0.00 | 33 | 1015.6 |
| 20260506224003 | 60 | 336 | 2.0 | 8.0 | 0.00 | 0.00 | 0.00 | 32 | 1015.7 |
| 20260506223503 | 60 | 341 | 1.0 | 8.0 | 0.00 | 0.00 | 0.00 | 32 | 1015.9 |
| 20260506223009 | 60 | 341 | 1.0 | 5.0 | 0.00 | 0.00 | 0.00 | 32 | 1015.9 |
| 20260506222503 | 60 | 319 | 3.0 | 9.0 | 0.00 | 0.00 | 0.00 | 32 | 1015.9 |
| 20260506222003 | 59 | 328 | 4.0 | 9.0 | 0.00 | 0.00 | 0.00 | 32 | 1015.9 |
| 20260506221508 | 60 | 352 | 2.0 | 9.0 | 0.00 | 0.00 | 0.00 | 31 | 1016.1 |
| 20260506220505 | 59 | 335 | 1.0 | 6.0 | 0.00 | 0.00 | 0.00 | 33 | 1016.1 |
| 20260506220008 | 59 | 332 | 2.0 | 7.0 | 0.00 | 0.00 | 0.00 | 32 | 1016.1 |
| 20260506215503 | 59 | 344 | 2.0 | 7.0 | 0.00 | 0.00 | 0.00 | 33 | 1016.2 |
| 20260506215003 | 59 | 359 | 2.0 | 6.0 | 0.00 | 0.00 | 0.00 | 34 | 1016.1 |
| 20260506214509 | 59 | 358 | 2.0 | 10.0 | 0.00 | 0.00 | 0.00 | 31 | 1016.2 |
| 20260506213503 | 59 | 319 | 2.0 | 9.0 | 0.00 | 0.00 | 0.00 | 32 | 1016.3 |
| 20260506213008 | 60 | 324 | 3.0 | 11.0 | 0.00 | 0.00 | 0.00 | 31 | 1016.4 |
| 20260506212504 | 60 | 327 | 3.0 | 11.0 | 0.00 | 0.00 | 0.00 | 31 | 1016.3 |
| 20260506212003 | 61 | 326 | 2.0 | 9.0 | 0.00 | 0.00 | 0.00 | 32 | 1016.5 |
| 20260506211004 | 60 | 327 | 1.0 | 6.0 | 0.00 | 0.00 | 0.00 | 31 | 1016.6 |
| 20260506210503 | 60 | 329 | 2.0 | 8.0 | 0.00 | 0.00 | 0.00 | 32 | 1016.6 |
| 20260506210008 | 60 | 339 | 2.0 | 10.0 | 0.00 | 0.00 | 0.00 | 32 | 1016.8 |
| 20260506205505 | 60 | 332 | 2.0 | 10.0 | 0.00 | 0.00 | 0.00 | 33 | 1016.8 |
| 20260506205004 | 59 | 323 | 2.0 | 5.0 | 0.00 | 0.00 | 0.00 | 32 | 1016.9 |
| 20260506204510 | 60 | 303 | 2.0 | 8.0 | 0.00 | 0.00 | 0.00 | 34 | 1016.9 |
| 20260506204003 | 60 | 346 | 2.0 | 8.0 | 0.00 | 0.00 | 0.00 | 31 | 1017.1 |
| 20260506203503 | 60 | 26 | 1.0 | 6.0 | 0.00 | 0.00 | 0.00 | 33 | 1017.0 |
| 20260506203009 | 60 | 350 | 2.0 | 7.0 | 0.00 | 0.00 | 0.00 | 33 | 1017.1 |
| 20260506202504 | 60 | 352 | 3.0 | 12.0 | 0.00 | 0.00 | 0.00 | 31 | 1017.2 |
| 20260506202003 | 60 | 328 | 3.0 | 12.0 | 0.00 | 0.00 | 0.00 | 32 | 1017.1 |
| 20260506201508 | 61 | 260 | 2.0 | 7.0 | 0.00 | 0.00 | 0.00 | 31 | 1017.2 |
| 20260506201003 | 61 | 290 | 3.0 | 13.0 | 0.00 | 0.00 | 0.00 | 31 | 1017.2 |
| 20260506200504 | 60 | 335 | 3.0 | 13.0 | 0.00 | 0.00 | 0.00 | 38 | 1017.2 |
| 20260506200008 | 59 | 323 | 2.0 | 10.0 | 0.00 | 0.00 | 0.00 | 33 | 1017.2 |
| 20260506195503 | 59 | 328 | 3.0 | 10.0 | 0.00 | 0.00 | 0.00 | 32 | 1017.3 |
| 20260506195003 | 59 | 336 | 3.0 | 8.0 | 0.00 | 0.00 | 0.00 | 33 | 1017.6 |
| 20260506194509 | 60 | 319 | 3.0 | 9.0 | 0.00 | 0.00 | 0.00 | 33 | 1017.5 |
| 20260506194003 | 60 | 316 | 4.0 | 11.0 | 0.00 | 0.00 | 0.00 | 32 | 1017.5 |
| 20260506193503 | 60 | 310 | 3.0 | 11.0 | 0.00 | 0.00 | 0.00 | 33 | 1017.5 |
| 20260506193009 | 60 | 273 | 2.0 | 8.0 | 0.00 | 0.00 | 0.00 | 36 | 1017.5 |
| 20260506192504 | 60 | 307 | 3.0 | 9.0 | 0.00 | 0.00 | 0.00 | 35 | 1017.5 |
| 20260506192004 | 59 | 335 | 2.0 | 9.0 | 0.00 | 0.00 | 0.00 | 34 | 1017.5 |
| 20260506191003 | 59 | 312 | 3.0 | 14.0 | 0.00 | 0.00 | 0.00 | 34 | 1017.6 |
| 20260506190503 | 60 | 313 | 3.0 | 14.0 | 0.00 | 0.00 | 0.00 | 34 | 1017.6 |
| 20260506190008 | 60 | 307 | 3.0 | 9.0 | 0.00 | 0.00 | 0.00 | 33 | 1017.7 |
| 20260506185003 | 59 | 330 | 3.0 | 10.0 | 0.00 | 0.00 | 0.00 | 34 | 1017.8 |
| 20260506184509 | 59 | 327 | 3.0 | 10.0 | 0.00 | 0.00 | 0.00 | 34 | 1017.8 |
| 20260506183503 | 59 | 290 | 2.0 | 9.0 | 0.00 | 0.00 | 0.00 | 34 | 1017.8 |
| 20260506183008 | 58 | 287 | 2.0 | 9.0 | 0.00 | 0.00 | 0.00 | 35 | 1017.9 |
| 20260506182504 | 57 | 304 | 2.0 | 7.0 | 0.00 | 0.00 | 0.00 | 36 | 1018.0 |
| 20260506182003 | 58 | 298 | 2.0 | 8.0 | 0.00 | 0.00 | 0.00 | 38 | 1018.1 |
| 20260506181509 | 58 | 270 | 2.0 | 8.0 | 0.00 | 0.00 | 0.00 | 38 | 1018.0 |
| 20260506181004 | 58 | 354 | 3.0 | 11.0 | 0.00 | 0.00 | 0.00 | 42 | 1018.1 |
| 20260506180503 | 56 | 9 | 4.0 | 11.0 | 0.00 | 0.00 | 0.00 | 37 | 1018.2 |
| 20260506180009 | 55 | 5 | 3.0 | 11.0 | 0.00 | 0.00 | 0.00 | 38 | 1018.2 |
| 20260506174508 | 57 | 288 | 1.0 | 11.0 | 0.00 | 0.00 | 0.00 | 37 | 1018.5 |
| 20260506174004 | 56 | 301 | 1.0 | 6.0 | 0.00 | 0.00 | 0.00 | 37 | 1018.6 |
| 20260506173503 | 56 | 338 | 1.0 | 6.0 | 0.00 | 0.00 | 0.00 | 39 | 1018.6 |
| 20260506173008 | 56 | 12 | 1.0 | 6.0 | 0.00 | 0.00 | 0.00 | 44 | 1018.6 |
| 20260506172504 | 56 | 356 | 2.0 | 9.0 | 0.00 | 0.00 | 0.00 | 40 | 1018.7 |
| 20260506171003 | 56 | 309 | 2.0 | 6.0 | 0.00 | 0.00 | 0.00 | 41 | 1018.8 |
| 20260506170504 | 56 | 319 | 2.0 | 5.0 | 0.00 | 0.00 | 0.00 | 41 | 1018.9 |
| 20260506170009 | 55 | 322 | 2.0 | 6.0 | 0.00 | 0.00 | 0.00 | 40 | 1018.9 |
| 20260506165503 | 55 | 276 | 2.0 | 6.0 | 0.00 | 0.00 | 0.00 | 40 | 1019.0 |
| 20260506165003 | 55 | 270 | 2.0 | 6.0 | 0.00 | 0.00 | 0.00 | 43 | 1018.9 |
| 20260506164509 | 55 | 3 | 3.0 | 8.0 | 0.00 | 0.00 | 0.00 | 41 | 1019.0 |
| 20260506164003 | 54 | 9 | 3.0 | 9.0 | 0.00 | 0.00 | 0.00 | 42 | 1019.0 |
| 20260506162503 | 54 | 336 | 1.0 | 6.0 | 0.00 | 0.00 | 0.00 | 42 | 1019.0 |
| 20260506162003 | 54 | 311 | 1.0 | 5.0 | 0.00 | 0.00 | 0.00 | 43 | 1019.1 |
| 20260506161508 | 53 | 2 | 2.0 | 12.0 | 0.00 | 0.00 | 0.00 | 43 | 1019.1 |
| 20260506161004 | 52 | 7 | 3.0 | 12.0 | 0.00 | 0.00 | 0.00 | 45 | 1019.1 |
| 20260506160503 | 52 | 347 | 2.0 | 7.0 | 0.00 | 0.00 | 0.00 | 43 | 1019.0 |
| 20260506160008 | 52 | 342 | 2.0 | 8.0 | 0.00 | 0.00 | 0.00 | 43 | 1019.0 |
| 20260506155503 | 52 | 330 | 1.0 | 8.0 | 0.00 | 0.00 | 0.00 | 44 | 1018.9 |
| 20260506155004 | 52 | 318 | 1.0 | 5.0 | 0.00 | 0.00 | 0.00 | 51 | 1018.9 |
| 20260506154508 | 52 | 350 | 1.0 | 5.0 | 0.00 | 0.00 | 0.00 | 47 | 1018.9 |
| 20260506154004 | 52 | 10 | 1.0 | 5.0 | 0.00 | 0.00 | 0.00 | 46 | 1018.9 |
| 20260506153008 | 50 | 355 | 2.0 | 6.0 | 0.00 | 0.00 | 0.00 | 47 | 1019.1 |
| 20260506152503 | 50 | 347 | 2.0 | 6.0 | 0.00 | 0.00 | 0.00 | 47 | 1019.0 |
| 20260506152004 | 50 | 325 | 2.0 | 7.0 | 0.00 | 0.00 | 0.00 | 47 | 1019.0 |
| 20260506151508 | 50 | 332 | 2.0 | 8.0 | 0.00 | 0.00 | 0.00 | 47 | 1019.1 |
| 20260506151003 | 50 | 356 | 2.0 | 8.0 | 0.00 | 0.00 | 0.00 | 54 | 1019.0 |
| 20260506150503 | 50 | 1 | 2.0 | 6.0 | 0.00 | 0.00 | 0.00 | 49 | 1019.0 |
| 20260506145504 | 50 | 339 | 2.0 | 6.0 | 0.00 | 0.00 | 0.00 | 48 | 1019.0 |
| 20260506145004 | 50 | 317 | 1.0 | 5.0 | 0.00 | 0.00 | 0.00 | 49 | 1019.1 |
| 20260506144508 | 49 | 299 | 0.0 | 3.0 | 0.00 | 0.00 | 0.00 | 50 | 1019.0 |
| 20260506144004 | 49 | 356 | 1.0 | 4.0 | 0.00 | 0.00 | 0.00 | 52 | 1019.1 |
| 20260506143503 | 48 | 2 | 1.0 | 4.0 | 0.00 | 0.00 | 0.00 | 52 | 1019.0 |
| 20260506143009 | 48 | 7 | 1.0 | 6.0 | 0.00 | 0.00 | 0.00 | 54 | 1019.0 |
| 20260506142504 | 48 | 350 | 0.0 | 6.0 | 0.00 | 0.00 | 0.00 | 54 | 1019.0 |
| 20260506142003 | 48 | 329 | 1.0 | 3.0 | 0.00 | 0.00 | 0.00 | 55 | 1019.0 |
| 20260506141003 | 47 | 354 | 1.0 | 4.0 | 0.00 | 0.00 | 0.00 | 54 | 1018.8 |
| 20260506140503 | 47 | 321 | 0.0 | 3.0 | 0.00 | 0.00 | 0.00 | 55 | 1018.8 |
| 20260506135504 | 46 | 322 | 1.0 | 4.0 | 0.00 | 0.00 | 0.00 | 58 | 1018.7 |
| 20260506135003 | 45 | 339 | 0.0 | 2.0 | 0.00 | 0.00 | 0.00 | 59 | 1018.8 |
| 20260506134003 | 45 | 328 | 0.0 | 3.0 | 0.00 | 0.00 | 0.00 | 60 | 1018.6 |
| 20260506133504 | 44 | 333 | 1.0 | 3.0 | 0.00 | 0.00 | 0.00 | 62 | 1018.6 |
| 20260506133008 | 44 | 343 | 1.0 | 4.0 | 0.00 | 0.00 | 0.00 | 61 | 1018.5 |
| 20260506132503 | 44 | 340 | 1.0 | 5.0 | 0.00 | 0.00 | 0.00 | 62 | 1018.5 |
| 20260506132005 | 43 | 338 | 1.0 | 5.0 | 0.00 | 0.00 | 0.00 | 62 | 1018.4 |
| 20260506131508 | 43 | 350 | 2.0 | 4.0 | 0.00 | 0.00 | 0.00 | 62 | 1018.3 |
| 20260506131003 | 42 | 351 | 1.0 | 4.0 | 0.00 | 0.00 | 0.00 | 64 | 1018.3 |
| 20260506130503 | 42 | 349 | 1.0 | 3.0 | 0.00 | 0.00 | 0.00 | 64 | 1018.2 |
| 20260506125505 | 41 | 346 | 0.0 | 3.0 | 0.00 | 0.00 | 0.00 | 68 | 1018.2 |
| 20260506125003 | 40 | 312 | 0.0 | 2.0 | 0.00 | 0.00 | 0.00 | 69 | 1018.2 |
| 20260506124508 | 40 | 306 | 0.0 | 2.0 | 0.00 | 0.00 | 0.00 | 71 | 1018.2 |
| 20260506124004 | 39 | 287 | 0.0 | 2.0 | 0.00 | 0.00 | 0.00 | 72 | 1018.1 |
| 20260506123503 | 39 | 285 | 0.0 | 3.0 | 0.00 | 0.00 | 0.00 | 74 | 1018.0 |
| 20260506122003 | 36 | 350 | 0.0 | 1.0 | 0.00 | 0.00 | 0.00 | 79 | 1017.7 |
| 20260506121508 | 36 | 350 | 0.0 | 1.0 | 0.00 | 0.00 | 0.00 | 80 | 1017.7 |
| 20260506121003 | 36 | 0 | 0.0 | 0.0 | 0.00 | 0.00 | 0.00 | 81 | 1017.6 |
| 20260506120503 | 35 | 0 | 0.0 | 0.0 | 0.00 | 0.00 | 0.00 | 81 | 1017.5 |
| 20260506120008 | 35 | 0 | 0.0 | 0.0 | 0.00 | 0.00 | 0.00 | 81 | 1017.4 |
| 20260506115003 | 34 | 0 | 0.0 | 0.0 | 0.00 | 0.00 | 0.00 | 80 | 1017.2 |
| 20260506114508 | 34 | 0 | 0.0 | 0.0 | 0.00 | 0.00 | 0.00 | 79 | 1017.2 |